Wind_Speed
19 20 18 16 15 14 14 14 13 13 11 11 12 12 13 16 15 14 13 12 12 11 9 9 7 6 5 5 6 5 5 6 6 6 6 6 6 6 6 8 9 8 8 7 6 6 5 4 4 3 3 4 5 5 6 9 11 11 9 8 6 2 2
18 19 18 17 16 15 14 14 13 12 11 10 11 10 11 15 16 14 12 11 10 11 11 10 9 8 7 7 8 7 6 6 7 7 7 7 6 6 7 7 7 6 4 4 3 3 4 3 2 2 1 2 2 4 5 6 8 8 8 8 7 3 1
19 19 18 17 16 14 14 15 14 13 13 12 12 11 11 14 16 14 11 9 8 10 11 11 10 8 7 7 8 8 8 8 8 8 7 8 7 7 7 7 7 7 6 5 5 4 3 2 2 2 1 2 2 2 2 3 4 6 7 7 7 6 5
19 18 17 17 15 14 15 15 14 14 13 13 12 12 13 13 14 13 9 8 9 12 13 11 11 10 10 9 8 8 9 9 8 6 6 7 7 7 7 8 8 8 7 6 5 4 3 2 2 3 4 5 5 4 4 4 5 6 6 5 5 5 4
17 16 15 15 14 14 15 15 15 14 14 13 13 13 13 13 13 11 10 10 11 13 13 12 12 11 11 11 10 9 9 8 7 6 5 5 6 6 7 8 8 8 7 6 6 6 5 5 5 5 6 6 6 7 6 5 3 2 5 6 5 3 4
15 15 13 13 13 13 15 16 15 15 14 14 13 12 13 12 12 12 11 10 10 10 10 10 10 10 10 10 10 9 9 8 7 6 5 5 4 3 3 4 5 5 5 6 5 5 5 6 5 4 4 5 5 4 3 2 2 3 4 7 7 3 3
16 15 13 12 13 13 15 16 15 15 14 14 13 12 12 12 12 11 11 10 9 8 8 8 8 8 8 8 7 7 6 6 5 4 4 4 3 3 2 2 1 2 1 1 1 2 3 4 5 5 4 4 5 3 3 3 3 3 2 5 5 4 4
15 15 13 12 12 12 14 15 15 15 14 14 14 13 12 11 11 11 10 9 9 8 7 7 7 7 6 6 6 5 5 6 5 4 4 4 4 3 3 3 3 3 3 3 3 3 3 3 5 6 6 6 5 4 2 3 4 5 3 3 2 2 4
15 15 15 13 12 11 11 13 13 13 13 13 13 12 12 11 11 11 10 9 9 8 7 6 6 6 5 5 5 5 5 6 6 6 6 5 5 5 5 4 4 4 4 4 3 3 3 3 3 3 4 5 6 6 5 3 2 4 4 3 3 3 3
16 16 16 14 13 11 10 10 10 10 11 11 11 10 11 10 10 10 9 9 8 7 7 6 5 5 4 4 4 5 5 5 6 6 6 6 6 6 5 5 5 5 5 3 3 3 3 2 2 2 2 2 4 5 6 7 5 2 3 5 6 5 5
18 16 14 14 13 12 11 10 9 8 7 8 8 7 8 8 7 7 7 7 7 7 6 6 5 5 4 3 3 3 4 5 5 5 5 5 6 5 5 5 5 5 5 4 2 2 2 2 3 3 3 3 4 5 6 8 8 5 3 4 6 8 9
18 16 14 12 12 12 11 10 9 7 6 5 5 5 4 4 4 4 4 4 4 4 5 5 5 4 4 3 3 2 2 3 3 3 4 4 4 3 3 3 4 4 5 4 4 4 3 3 4 5 6 5 5 5 5 8 9 7 6 7 7 8 10
16 16 14 12 11 11 11 10 10 8 6 5 4 3 3 2 1 0 0 0 1 1 2 2 3 3 3 3 3 3 2 2 3 2 2 2 2 2 1 1 2 2 3 4 5 6 6 5 4 4 5 5 4 5 5 8 10 10 10 12 11 10 9
17 16 14 13 12 11 11 11 10 9 7 6 5 4 4 3 3 4 3 3 3 4 5 5 5 5 5 4 4 4 4 4 3 3 3 3 2 3 3 3 2 1 1 2 4 6 6 6 5 4 4 4 4 5 7 8 12 15 14 13 13 12 11
17 16 13 13 14 14 13 12 11 9 8 7 6 5 6 6 6 6 6 6 6 6 7 8 8 9 9 9 8 7 7 6 5 4 4 4 3 3 4 4 3 2 0 1 3 5 6 6 5 4 5 5 5 6 9 11 13 16 16 14 14 13 13
18 17 14 14 17 18 16 15 14 12 11 9 9 8 8 9 9 10 10 9 9 9 9 10 11 12 12 12 12 12 10 9 8 8 7 6 5 5 5 6 6 5 4 2 3 4 5 5 5 5 6 7 8 8 10 12 13 15 17 17 16 16 17
21 20 17 15 17 18 17 16 15 14 13 12 12 11 11 11 11 11 11 11 11 12 13 13 13 13 14 15 15 15 14 12 11 11 10 9 9 9 7 7 7 7 6 5 5 5 7 7 7 8 8 9 11 11 12 12 13 15 18 19 18 18 18
23 21 18 16 17 18 19 18 17 16 16 15 15 15 15 15 14 13 12 11 11 14 15 16 16 15 16 17 17 17 17 15 14 14 14 12 12 12 11 9 8 9 8 7 7 7 7 8 8 9 11 12 13 14 14 14 14 16 17 19 19 18 18
21 20 19 20 21 21 21 21 20 19 18 18 17 18 18 19 18 18 16 14 13 15 16 15 17 18 19 19 19 19 20 19 17 17 17 15 15 15 13 11 10 10 10 9 8 8 8 8 9 10 11 13 14 15 15 15 16 16 17 18 19 18 18
18 17 18 21 21 19 19 20 21 20 20 20 20 21 22 23 23 22 19 16 16 18 18 16 18 22 23 23 23 22 22 21 20 20 19 18 17 16 15 13 12 12 11 10 10 10 10 10 10 11 13 14 15 16 16 16 16 16 17 18 18 19 19
16 16 17 20 20 19 20 19 18 18 18 17 17 17 19 21 23 23 23 22 20 20 21 21 22 25 26 27 26 25 24 23 22 21 21 20 19 19 17 15 15 14 13 12 11 11 11 11 12 14 15 16 16 16 16 16 17 17 17 18 18 19 20
14 14 15 16 18 19 18 17 16 15 14 14 14 14 14 15 16 18 21 23 22 23 25 27 26 26 27 28 28 27 26 25 23 23 22 21 21 20 19 17 16 15 14 13 13 12 12 12 14 15 16 17 17 17 16 16 16 17 17 18 19 20 21
10 10 10 11 12 12 12 12 13 12 11 12 12 12 12 11 12 14 17 20 22 24 27 28 27 27 28 29 28 27 26 26 25 25 24 23 23 22 21 19 17 16 15 15 14 14 13 14 15 16 17 18 18 18 17 17 16 17 18 18 19 20 22
9 7 7 7 6 5 5 6 6 5 5 7 7 9 9 9 10 12 14 15 18 20 23 24 25 27 29 30 29 28 27 27 27 27 26 25 25 23 21 20 18 16 17 17 16 14 14 16 17 17 18 19 19 18 18 18 19 20 21 22 22 22 23
8 7 7 7 5 4 4 4 3 2 3 4 5 6 7 8 9 10 12 13 15 16 18 19 21 25 29 31 31 31 29 28 29 29 29 27 26 23 21 19 17 18 20 19 17 16 16 18 18 18 19 19 20 19 19 20 22 23 24 25 25 25 25
7 8 9 9 8 8 8 6 5 4 5 5 6 7 8 8 9 11 12 13 14 15 17 18 19 22 26 28 31 32 31 30 30 31 30 29 27 23 20 18 18 20 22 20 18 18 19 20 20 20 20 20 20 21 22 23 24 25 26 27 28 27 25
8 10 10 10 10 9 9 8 7 7 6 7 8 8 9 11 12 13 14 14 15 16 17 18 20 21 22 24 27 30 31 32 32 31 30 28 24 20 18 18 19 20 20 19 19 20 21 21 21 20 21 21 21 22 23 25 26 27 28 28 29 29 27
10 10 9 8 7 7 7 8 8 9 9 9 9 9 10 11 11 12 13 14 14 15 15 16 17 19 20 21 24 27 29 31 32 31 27 23 19 18 18 17 17 17 17 18 20 21 21 20 20 21 21 22 23 24 25 26 28 29 30 30 30 29 28
11 11 10 7 5 4 4 4 5 6 8 9 10 10 11 12 12 13 14 15 15 14 14 13 14 15 16 18 20 23 25 29 32 30 24 19 17 17 16 16 16 16 17 18 19 19 19 19 19 20 20 21 23 25 26 28 29 30 31 31 30 30 29
10 9 8 6 3 2 3 4 4 4 5 6 8 9 10 11 12 13 15 16 16 15 15 14 14 14 15 15 17 21 25 28 30 25 19 17 17 17 15 16 17 17 18 18 18 18 19 19 20 21 22 23 25 27 28 29 31 31 32 32 31 31 31
9 8 7 6 6 6 7 6 6 6 6 7 7 9 10 12 13 14 15 16 17 17 16 15 15 15 16 16 17 21 25 27 25 20 16 15 16 15 15 16 16 17 18 18 18 19 20 21 22 23 25 26 28 29 30 32 33 34 34 34 34 34 35
8 9 9 9 10 11 10 9 9 8 8 9 9 9 11 12 14 16 16 16 17 18 17 16 16 17 17 17 18 21 25 26 24 20 16 14 12 13 15 15 15 16 16 17 18 20 21 23 24 25 26 28 30 31 32 34 36 37 38 39 39 39 39
10 12 13 13 13 12 12 12 12 12 12 11 10 10 12 14 16 17 17 17 18 18 18 18 18 18 18 18 20 22 25 24 22 20 17 15 13 13 14 14 14 16 17 18 20 21 22 23 24 26 28 30 32 34 35 37 38 39 40 40 39 38 37
13 13 13 13 13 14 15 16 17 17 16 14 13 11 13 16 18 19 19 19 19 19 18 18 18 18 18 19 20 22 22 20 17 17 17 16 15 16 17 18 18 19 20 21 21 22 23 25 27 28 30 32 34 35 36 37 37 35 34 32 31 31 30
15 15 15 15 16 18 19 19 20 20 19 17 14 13 15 18 20 21 22 22 22 21 19 18 18 18 18 19 20 20 17 15 15 16 18 18 18 19 20 21 21 22 22 22 23 24 25 27 28 30 31 32 32 32 31 30 28 26 25 25 26 27 26
16 16 17 17 18 20 21 22 22 22 20 18 15 14 16 19 20 22 23 24 23 21 18 17 16 16 17 18 18 16 13 13 16 18 19 19 19 20 22 23 23 23 22 23 24 25 26 27 28 29 28 27 26 25 23 21 20 20 21 22 23 24 24
19 19 19 19 20 22 23 24 24 22 21 17 14 15 18 20 21 22 23 22 20 17 15 14 15 15 15 16 15 14 14 15 17 19 20 20 21 21 21 20 19 19 19 20 22 23 24 25 24 23 22 22 21 21 20 19 19 20 21 22 23 24 24
Wind_Direction
147 143 140 136 133 131 130 128 126 126 130 139 147 151 154 155 148 138 140 150 154 153 160 170 167 166 180 188 178 158 142 143 145 158 176 183 199 208 205 214 224 231 238 244 254 266 266 265 279 295 298 301 324 333 317 306 301 297 294 286 278 281 317
145 142 141 140 140 141 133 124 119 115 112 109 114 126 145 156 156 149 152 161 162 166 178 188 188 194 214 224 216 199 179 167 150 143 147 150 153 156 164 183 200 197 193 200 210 231 244 257 270 264 273 275 314 1 349 335 324 310 305 296 278 259 249
149 147 146 146 146 140 128 119 113 110 110 109 106 103 113 142 159 162 168 172 160 155 164 175 181 182 189 196 203 199 184 173 165 154 144 143 143 143 153 166 175 169 155 152 166 181 192 197 198 196 227 254 263 337 340 319 319 321 321 312 289 270 259
152 152 151 150 146 133 123 118 117 115 114 112 112 109 104 119 145 157 162 152 130 124 126 131 132 127 126 132 147 166 169 167 168 167 162 162 165 166 165 164 165 165 162 164 176 184 189 207 237 255 262 253 246 249 250 261 290 312 331 336 309 285 291
153 155 154 150 141 131 124 122 120 119 118 116 114 114 112 113 122 130 130 123 118 115 112 111 109 105 105 104 108 121 133 141 146 147 151 159 171 181 182 183 185 184 186 196 211 224 232 241 256 265 264 258 252 253 257 263 276 343 23 12 351 304 289
154 155 154 147 139 128 122 120 119 118 118 120 118 116 117 117 118 118 117 115 111 108 108 108 106 103 101 100 101 103 106 111 113 114 119 121 133 156 173 190 197 200 210 222 237 250 254 257 261 262 263 271 280 274 236 177 119 91 55 29 18 5 288
155 154 154 150 143 132 123 121 121 120 119 119 119 119 118 120 123 122 121 120 113 107 105 104 104 102 97 96 96 96 100 101 100 105 109 110 114 111 97 87 102 123 152 186 298 323 320 318 325 334 324 301 296 285 203 160 135 140 110 59 46 57 86
161 157 157 156 152 140 127 126 127 125 124 123 122 122 122 122 123 124 125 125 123 119 114 108 104 101 98 96 97 98 102 100 103 109 107 108 113 111 110 98 86 87 83 81 70 42 22 8 4 2 352 339 329 322 279 215 185 183 174 115 126 146 106
174 169 168 167 165 152 135 130 130 127 124 124 124 124 125 125 123 125 127 128 130 130 127 122 112 106 104 100 100 98 96 97 99 101 100 102 105 106 113 116 112 105 91 86 91 85 71 46 40 36 9 349 347 350 343 323 227 216 243 248 227 208 172
189 184 179 176 173 165 152 139 134 132 127 123 124 123 124 125 126 127 129 132 135 135 133 131 125 121 119 112 106 103 103 107 104 101 101 102 103 104 104 105 106 101 88 70 62 62 59 48 43 44 13 335 337 341 337 337 338 308 282 280 276 265 243
198 195 189 182 179 172 165 158 153 147 138 130 126 124 120 120 123 127 131 135 137 141 141 140 138 134 137 135 122 113 111 111 108 109 112 108 106 106 100 95 91 91 86 69 56 53 42 39 38 34 20 350 337 335 326 325 331 333 315 288 277 275 271
204 200 194 185 186 183 177 175 175 171 168 159 145 140 132 119 111 115 126 137 144 151 151 151 153 148 149 152 142 133 120 112 116 127 129 122 116 109 101 97 91 89 86 75 67 66 63 63 60 51 40 24 6 360 345 328 322 319 314 304 288 276 272
211 205 198 192 194 196 192 191 192 193 200 200 187 185 187 176 175 145 105 311 248 218 217 207 200 196 186 181 178 181 179 167 172 181 170 156 161 172 170 161 133 91 72 62 54 46 40 40 45 44 35 23 6 353 344 329 317 312 317 315 307 298 287
200 197 198 203 205 201 199 201 205 208 210 214 217 227 242 241 242 252 260 277 290 287 287 283 269 261 255 244 235 230 229 229 224 218 213 215 229 239 245 239 201 136 82 50 44 36 24 17 16 6 354 348 339 326 318 312 306 304 310 315 311 310 308
194 188 184 194 200 200 197 196 199 204 211 222 238 252 269 277 277 275 272 276 283 282 285 288 283 277 274 271 266 260 251 250 261 260 240 240 260 265 268 278 284 273 242 21 25 22 16 10 356 330 322 321 308 294 287 287 292 296 304 313 315 317 318
195 198 193 186 187 191 195 198 200 205 212 224 236 245 257 270 277 282 283 286 290 291 289 286 283 280 278 276 274 272 265 259 265 274 273 273 279 276 269 275 287 290 288 309 341 351 356 356 346 328 321 319 309 296 290 289 291 296 303 309 312 312 313
191 201 208 202 193 192 198 207 212 215 219 225 233 241 249 254 260 268 277 283 291 296 296 292 287 281 279 279 276 273 271 265 262 267 272 273 274 279 277 275 281 285 286 292 306 325 339 340 339 334 328 324 318 311 307 301 294 293 296 301 306 307 307
198 205 218 225 222 215 210 215 222 225 228 231 235 243 248 248 247 246 249 257 270 280 282 284 285 284 281 280 276 272 271 267 262 262 266 265 265 270 275 278 284 288 290 294 297 308 324 330 331 328 323 320 316 312 311 306 300 295 293 296 302 305 306
212 218 228 229 227 225 221 221 226 230 234 238 239 242 242 240 241 240 237 243 258 266 263 263 271 278 279 276 272 269 268 266 262 260 262 262 260 262 268 271 278 286 291 295 298 303 312 319 319 316 315 314 312 311 310 308 306 303 300 300 302 305 307
223 221 223 219 217 221 224 225 230 236 241 245 247 248 246 245 246 245 245 250 261 263 260 259 264 266 267 267 265 264 264 263 261 260 260 259 258 258 261 265 271 279 286 291 296 301 305 308 310 312 313 313 312 311 311 310 309 306 304 304 305 307 308
215 213 215 215 215 220 223 225 230 232 233 237 241 246 247 249 250 249 250 254 259 261 262 266 265 258 257 258 258 258 259 259 259 258 256 254 255 257 259 262 269 277 285 291 295 297 300 305 310 313 314 312 310 309 309 309 308 306 305 307 309 310 309
206 209 214 217 217 218 220 219 219 220 222 227 232 236 241 246 247 246 248 251 254 255 256 259 258 253 253 255 253 253 254 255 255 254 251 250 252 256 260 264 268 275 282 289 292 293 297 303 308 311 312 310 308 306 307 306 306 306 307 309 310 310 308
191 196 203 208 210 211 213 215 217 225 234 235 234 236 239 244 245 245 247 249 252 253 254 255 254 250 252 254 252 250 250 251 252 250 247 249 253 257 262 266 269 274 280 284 287 289 295 301 306 308 308 306 304 304 305 306 307 308 310 311 312 312 311
157 158 160 165 175 180 189 203 213 228 242 239 239 242 244 249 255 256 255 254 253 252 252 255 255 253 253 253 252 251 249 247 248 247 246 249 253 256 260 264 268 275 283 287 287 288 294 300 303 306 306 305 303 302 305 309 312 315 316 317 318 318 318
155 157 158 158 157 147 153 173 191 228 258 264 264 262 257 259 265 267 264 259 256 256 256 257 259 257 255 253 253 253 249 245 245 246 245 248 250 252 257 262 270 283 289 290 290 292 296 299 303 305 305 303 303 305 308 312 315 317 318 319 320 320 321
167 176 180 184 185 179 177 185 200 223 247 259 262 266 267 263 263 265 265 264 263 264 264 262 260 256 255 255 253 250 247 244 243 244 243 244 246 250 256 264 274 286 290 289 291 294 295 298 301 302 302 301 303 306 310 312 314 315 317 318 318 317 318
178 183 187 194 200 200 200 200 204 211 221 236 248 258 265 267 269 269 269 270 271 270 270 269 266 261 258 256 252 247 246 245 243 240 237 237 241 249 258 266 276 284 287 287 290 291 292 296 299 300 300 301 302 305 307 308 310 311 313 314 313 312 314
196 194 197 207 214 215 211 208 212 219 225 233 242 249 253 259 269 275 275 274 274 275 278 276 272 266 260 256 252 247 245 244 241 236 231 230 239 251 258 264 271 278 279 280 283 286 288 292 294 295 296 297 299 302 303 304 306 307 307 308 306 307 308
213 212 218 228 229 220 217 222 232 238 238 239 243 250 254 255 258 266 273 276 276 281 286 283 275 267 260 257 254 247 242 239 237 233 229 232 245 252 256 261 269 274 274 274 277 280 282 284 284 285 287 290 293 295 296 297 298 297 298 299 299 300 301
228 235 244 250 252 261 280 291 297 291 277 258 250 256 263 264 262 262 267 273 277 281 285 284 280 274 269 265 256 245 237 234 234 233 233 241 249 252 256 263 271 275 275 276 279 281 283 283 281 282 285 288 290 291 291 292 292 291 292 293 293 294 294
239 247 251 251 259 274 284 286 293 303 302 288 272 263 262 265 266 263 264 269 273 275 278 281 282 279 272 264 254 243 236 233 233 237 241 246 249 254 259 265 272 274 276 278 281 282 282 281 281 283 286 288 289 290 291 291 290 290 290 289 289 289 289
224 232 239 252 266 273 274 276 286 297 299 294 284 267 259 260 262 261 261 263 266 269 270 271 272 272 268 260 252 244 238 234 235 238 239 238 240 249 257 263 268 269 268 270 272 274 275 276 278 282 285 287 288 289 290 289 289 290 290 289 290 289 289
235 244 252 263 271 274 275 280 286 292 295 293 288 270 255 255 258 261 262 261 262 264 263 260 262 266 265 258 251 245 239 235 236 236 233 229 229 236 244 246 247 251 254 259 264 268 271 275 278 282 284 286 288 289 289 289 290 291 291 292 292 293 294
248 251 257 264 268 272 279 283 284 289 292 291 288 272 255 253 256 258 259 261 262 262 258 255 257 259 259 253 249 245 240 236 239 242 240 234 228 230 237 238 240 246 252 258 263 269 275 279 281 283 285 287 288 289 290 291 291 292 294 295 297 299 301
251 250 253 256 258 263 270 273 277 283 286 286 284 271 257 257 259 259 258 260 262 261 258 255 253 252 251 246 242 241 239 240 246 249 245 237 231 233 241 245 248 254 260 267 273 277 281 283 285 286 287 288 290 291 293 294 296 299 302 304 306 308 311
254 253 253 253 256 260 262 265 271 276 278 280 279 267 260 261 261 260 259 258 258 258 256 251 244 240 239 235 232 235 241 249 254 251 244 239 240 243 247 251 257 265 273 279 283 284 285 287 288 289 291 294 297 300 301 303 305 307 309 311 314 317 320
257 257 256 256 258 259 261 265 269 269 270 273 269 259 260 261 259 257 257 255 254 252 246 239 232 225 223 222 222 230 239 246 251 250 244 243 245 247 252 259 268 277 282 284 284 285 287 288 290 294 298 302 306 310 310 308 307 309 312 316 318 319 317
Height
1520 1520 1521 1522 1524 1525 1526 1528 1529 1530 1532 1533 1534 1534 1535 1537 1537 1537 1537 1537 1537 1537 1537 1538 1538 1538 1537 1537 1538 1538 1538 1538 1538 1538 1538 1539 1540 1541 1541 1542 1542 1543 1544 1544 1545 1545 1546 1546 1547 1547 1548 1548 1548 1548 1547 1547 1547 1548 1549 1549 1549 1548 1548
1520 1520 1521 1522 1523 1524 1525 1527 1528 1530 1531 1532 1533 1534 1535 1536 1537 1537 1537 1537 1537 1538 1538 1538 1538 1538 1537 1537 1537 1538 1538 1538 1538 1538 1539 1539 1540 1540 1541 1542 1542 1543 1543 1544 1544 1544 1545 1545 1546 1547 1547 1547 1547 1547 1547 1547 1546 1547 1547 1548 1548 1547 1547
1519 1520 1521 1522 1523 1524 1525 1526 1528 1529 1531 1532 1533 1534 1534 1535 1536 1537 1537 1537 1538 1538 1538 1538 1538 1538 1537 1537 1537 1537 1538 1538 1538 1539 1539 1539 1540 1541 1541 1542 1542 1542 1543 1543 1544 1544 1544 1545 1545 1546 1546 1546 1546 1546 1546 1546 1546 1546 1546 1547 1547 1547 1547
1518 1519 1520 1521 1522 1523 1524 1525 1527 1528 1530 1531 1532 1533 1534 1535 1536 1537 1537 1537 1538 1538 1538 1538 1538 1538 1537 1537 1537 1538 1538 1539 1539 1539 1540 1540 1540 1541 1541 1542 1542 1542 1543 1543 1544 1544 1544 1544 1545 1545 1545 1545 1545 1545 1545 1545 1545 1546 1546 1546 1546 1546 1547
1518 1519 1520 1521 1522 1523 1524 1525 1526 1528 1529 1530 1532 1533 1534 1535 1536 1537 1538 1538 1538 1538 1538 1538 1539 1539 1539 1539 1539 1539 1540 1540 1540 1540 1541 1541 1541 1541 1541 1542 1542 1543 1543 1543 1543 1544 1544 1544 1544 1544 1544 1544 1544 1544 1544 1544 1544 1545 1546 1546 1546 1546 1546
1518 1519 1520 1521 1522 1523 1523 1525 1526 1527 1529 1530 1531 1533 1534 1535 1536 1537 1538 1539 1539 1539 1539 1540 1540 1540 1540 1540 1540 1541 1541 1541 1541 1541 1541 1541 1541 1542 1542 1542 1543 1543 1543 1543 1543 1544 1544 1544 1544 1544 1544 1544 1544 1543 1543 1543 1544 1544 1545 1545 1544 1544 1543
1518 1519 1520 1521 1522 1523 1523 1524 1526 1527 1528 1530 1531 1533 1534 1535 1536 1537 1538 1539 1539 1540 1540 1541 1541 1541 1541 1542 1542 1542 1542 1542 1543 1542 1542 1542 1542 1542 1542 1543 1543 1543 1543 1543 1544 1544 1544 1544 1544 1544 1544 1543 1543 1543 1543 1543 1543 1543 1543 1543 1543 1542 1542
1519 1520 1521 1522 1523 1523 1523 1525 1526 1527 1529 1530 1531 1533 1534 1535 1536 1537 1538 1539 1540 1541 1541 1541 1542 1542 1543 1543 1543 1543 1543 1543 1543 1543 1543 1543 1543 1543 1543 1543 1543 1543 1543 1543 1543 1543 1543 1543 1543 1543 1543 1543 1543 1543 1542 1542 1542 1542 1542 1542 1542 1542 1542
1519 1520 1521 1522 1523 1524 1524 1525 1526 1527 1529 1530 1531 1532 1534 1535 1536 1537 1538 1539 1540 1541 1542 1542 1543 1543 1544 1544 1544 1544 1544 1544 1544 1544 1544 1544 1544 1543 1543 1543 1543 1543 1543 1543 1543 1543 1543 1543 1543 1543 1543 1542 1542 1542 1542 1542 1542 1542 1542 1541 1541 1541 1542
1519 1520 1521 1522 1524 1524 1525 1525 1526 1527 1529 1530 1531 1532 1534 1535 1536 1537 1538 1539 1540 1541 1542 1543 1544 1544 1544 1545 1545 1545 1545 1545 1545 1545 1545 1545 1544 1544 1544 1544 1544 1544 1543 1544 1544 1543 1543 1543 1543 1543 1543 1542 1542 1542 1541 1541 1541 1541 1541 1541 1541 1541 1541
1520 1520 1522 1523 1524 1525 1525 1525 1526 1527 1528 1530 1531 1532 1534 1535 1536 1537 1538 1539 1540 1541 1542 1543 1544 1545 1545 1545 1546 1546 1546 1546 1546 1546 1546 1546 1546 1546 1545 1545 1545 1544 1544 1544 1544 1544 1544 1544 1544 1543 1543 1543 1542 1542 1542 1541 1541 1541 1540 1540 1540 1540 1540
1522 1522 1523 1524 1526 1526 1527 1527 1526 1527 1528 1530 1531 1532 1534 1535 1536 1537 1539 1540 1541 1542 1543 1543 1544 1545 1545 1546 1546 1546 1547 1547 1547 1547 1547 1547 1547 1547 1546 1546 1546 1546 1545 1545 1545 1545 1544 1544 1544 1544 1543 1543 1543 1542 1542 1541 1541 1540 1540 1539 1539 1539 1538
1525 1525 1525 1526 1526 1527 1528 1528 1527 1527 1528 1529 1530 1532 1533 1535 1536 1537 1539 1540 1541 1542 1543 1544 1544 1545 1545 1546 1546 1547 1547 1547 1547 1547 1547 1547 1547 1547 1547 1547 1547 1546 1546 1545 1545 1545 1544 1544 1544 1543 1543 1543 1542 1542 1542 1541 1540 1540 1540 1539 1538 1538 1537
1523 1525 1526 1527 1527 1527 1528 1528 1528 1528 1528 1528 1529 1530 1532 1533 1535 1536 1538 1539 1541 1542 1543 1544 1544 1545 1545 1546 1546 1546 1547 1547 1547 1547 1547 1547 1547 1547 1547 1547 1547 1547 1546 1546 1545 1545 1544 1543 1543 1542 1542 1542 1542 1541 1541 1540 1539 1538 1538 1538 1538 1537 1536
1523 1526 1527 1527 1527 1526 1527 1527 1527 1527 1527 1527 1528 1529 1530 1532 1534 1535 1537 1538 1540 1541 1543 1543 1544 1545 1545 1545 1546 1546 1546 1546 1546 1546 1546 1547 1547 1547 1546 1546 1546 1546 1546 1546 1545 1545 1544 1543 1543 1542 1541 1541 1541 1541 1540 1539 1539 1537 1537 1537 1536 1536 1535
1521 1525 1526 1526 1525 1525 1525 1525 1526 1526 1526 1527 1527 1528 1529 1530 1532 1533 1535 1537 1538 1540 1541 1543 1544 1544 1545 1545 1545 1545 1545 1545 1545 1545 1545 1545 1545 1546 1546 1545 1545 1545 1545 1545 1545 1545 1544 1543 1543 1542 1541 1541 1540 1540 1539 1538 1538 1537 1535 1535 1535 1534 1534
1518 1522 1524 1524 1525 1524 1524 1524 1525 1525 1526 1526 1526 1526 1527 1528 1529 1531 1532 1534 1535 1537 1538 1540 1541 1543 1544 1544 1545 1545 1545 1545 1544 1544 1544 1543 1543 1544 1544 1544 1544 1544 1544 1544 1544 1544 1543 1543 1542 1542 1541 1540 1539 1539 1538 1537 1536 1535 1534 1533 1533 1533 1532
1515 1517 1520 1523 1524 1523 1523 1523 1523 1524 1525 1525 1525 1525 1525 1526 1526 1527 1528 1531 1532 1533 1534 1535 1537 1540 1541 1542 1543 1543 1544 1544 1544 1543 1543 1542 1542 1541 1542 1542 1542 1542 1542 1543 1543 1542 1542 1542 1541 1541 1540 1539 1538 1538 1537 1536 1535 1534 1533 1532 1531 1531 1531
1513 1513 1516 1518 1520 1521 1521 1521 1521 1522 1523 1524 1525 1525 1525 1525 1524 1524 1525 1527 1529 1530 1530 1532 1534 1536 1538 1539 1540 1540 1541 1542 1542 1542 1541 1541 1541 1540 1540 1540 1540 1540 1541 1541 1541 1541 1540 1540 1540 1540 1539 1538 1537 1536 1535 1534 1533 1532 1531 1530 1530 1529 1529
1512 1512 1513 1514 1517 1519 1519 1519 1520 1520 1521 1522 1523 1524 1524 1524 1524 1524 1524 1526 1528 1530 1530 1530 1532 1532 1533 1534 1535 1536 1537 1538 1539 1540 1540 1540 1540 1540 1539 1539 1539 1539 1539 1539 1539 1539 1539 1538 1538 1537 1537 1536 1535 1534 1533 1532 1531 1530 1529 1528 1528 1527 1526
1510 1511 1512 1513 1515 1517 1517 1518 1518 1518 1518 1519 1521 1522 1522 1522 1523 1524 1524 1524 1526 1527 1527 1528 1529 1529 1529 1530 1532 1533 1534 1535 1536 1537 1537 1538 1538 1538 1538 1538 1538 1538 1538 1538 1538 1538 1537 1537 1536 1535 1535 1534 1533 1532 1531 1530 1529 1528 1527 1526 1525 1524 1523
1510 1511 1512 1513 1514 1515 1515 1515 1515 1515 1516 1517 1519 1519 1519 1520 1520 1520 1521 1521 1522 1523 1524 1525 1526 1527 1528 1529 1530 1531 1532 1532 1533 1534 1535 1536 1536 1536 1536 1537 1537 1537 1537 1537 1536 1536 1535 1535 1534 1534 1533 1532 1531 1530 1529 1528 1527 1526 1525 1524 1523 1522 1521
1510 1511 1512 1512 1513 1514 1514 1514 1514 1514 1515 1516 1516 1517 1517 1517 1518 1518 1518 1519 1520 1521 1521 1522 1523 1525 1526 1527 1528 1529 1529 1530 1531 1532 1532 1533 1534 1534 1534 1535 1535 1535 1535 1535 1535 1534 1534 1533 1533 1532 1531 1530 1529 1528 1527 1526 1525 1524 1523 1522 1521 1520 1518
1510 1510 1511 1511 1512 1512 1513 1513 1513 1513 1514 1514 1515 1515 1515 1515 1515 1516 1517 1517 1518 1519 1519 1520 1521 1522 1524 1525 1526 1526 1527 1528 1528 1529 1529 1530 1531 1532 1532 1532 1532 1533 1533 1533 1533 1533 1532 1532 1531 1530 1529 1528 1527 1526 1525 1524 1523 1522 1521 1519 1518 1517 1516
1509 1509 1510 1510 1511 1511 1511 1512 1512 1512 1513 1513 1513 1513 1513 1513 1514 1514 1515 1515 1516 1516 1517 1518 1519 1520 1521 1522 1523 1523 1524 1525 1525 1525 1526 1527 1528 1529 1530 1530 1530 1530 1530 1531 1530 1530 1530 1530 1529 1528 1527 1526 1525 1524 1524 1523 1521 1520 1519 1517 1516 1515 1514
1507 1508 1508 1509 1510 1510 1510 1511 1511 1511 1511 1511 1512 1511 1511 1512 1512 1512 1512 1512 1513 1514 1514 1516 1517 1518 1518 1519 1520 1520 1521 1522 1522 1522 1523 1524 1526 1526 1527 1528 1527 1527 1528 1528 1528 1528 1527 1527 1526 1526 1525 1524 1523 1522 1522 1521 1520 1518 1517 1515 1514 1513 1512
1506 1506 1507 1507 1508 1508 1509 1509 1509 1510 1510 1510 1510 1510 1510 1510 1510 1510 1510 1510 1511 1511 1512 1514 1514 1515 1516 1516 1517 1518 1518 1519 1519 1520 1520 1522 1523 1523 1524 1525 1525 1525 1526 1526 1526 1525 1524 1524 1523 1522 1522 1521 1521 1521 1520 1519 1518 1517 1515 1514 1512 1510 1510
1504 1504 1505 1506 1506 1506 1507 1507 1507 1508 1508 1508 1509 1509 1509 1509 1509 1510 1509 1509 1510 1510 1511 1512 1512 1512 1513 1513 1514 1515 1516 1516 1517 1517 1518 1520 1521 1522 1522 1523 1523 1523 1523 1524 1524 1523 1522 1522 1521 1520 1519 1519 1518 1518 1518 1517 1516 1515 1513 1512 1510 1508 1507
1503 1503 1504 1504 1504 1505 1505 1505 1506 1506 1506 1507 1507 1508 1508 1508 1508 1508 1508 1508 1509 1509 1510 1510 1510 1510 1510 1511 1512 1513 1513 1514 1514 1514 1516 1518 1519 1519 1520 1521 1521 1521 1522 1522 1522 1521 1521 1520 1519 1518 1517 1516 1516 1515 1515 1514 1513 1512 1511 1509 1507 1506 1504
1501 1502 1502 1503 1503 1503 1504 1504 1504 1505 1505 1505 1506 1506 1506 1507 1507 1507 1506 1506 1507 1508 1508 1508 1508 1508 1508 1509 1510 1511 1512 1512 1511 1512 1514 1517 1517 1517 1518 1519 1518 1519 1520 1519 1519 1519 1518 1518 1517 1516 1515 1514 1513 1513 1512 1512 1510 1509 1507 1506 1504 1503 1501
1500 1500 1501 1501 1502 1502 1503 1503 1503 1503 1504 1504 1504 1504 1505 1505 1505 1504 1504 1504 1505 1505 1506 1507 1507 1507 1507 1508 1509 1509 1510 1510 1510 1511 1513 1515 1516 1516 1516 1515 1515 1516 1517 1517 1517 1517 1516 1515 1515 1513 1512 1511 1510 1509 1509 1508 1506 1505 1504 1502 1501 1500 1498
1499 1499 1500 1500 1501 1501 1501 1502 1502 1502 1502 1502 1502 1502 1502 1502 1502 1502 1502 1503 1503 1503 1504 1505 1505 1505 1505 1506 1507 1508 1508 1508 1509 1510 1512 1513 1514 1513 1512 1512 1513 1514 1514 1515 1515 1514 1513 1513 1512 1511 1509 1508 1506 1506 1505 1504 1502 1500 1499 1497 1496 1494 1493
1498 1498 1498 1499 1499 1499 1500 1500 1500 1500 1500 1500 1500 1500 1500 1500 1499 1499 1500 1501 1501 1501 1502 1503 1503 1503 1503 1504 1505 1505 1506 1507 1507 1508 1509 1510 1511 1510 1510 1510 1511 1512 1512 1512 1512 1511 1510 1510 1509 1508 1506 1504 1503 1502 1501 1499 1497 1496 1494 1492 1490 1488 1486
1496 1496 1497 1497 1497 1497 1498 1498 1498 1498 1498 1498 1498 1498 1497 1497 1497 1497 1498 1498 1499 1499 1500 1500 1500 1501 1501 1502 1503 1503 1504 1505 1506 1507 1508 1509 1509 1509 1508 1508 1509 1510 1510 1509 1509 1508 1507 1506 1505 1504 1503 1501 1499 1498 1496 1494 1493 1491 1489 1487 1485 1483 1481
1495 1495 1495 1495 1495 1495 1496 1496 1496 1496 1495 1495 1495 1495 1494 1494 1494 1495 1495 1496 1496 1497 1497 1497 1498 1498 1499 1500 1501 1502 1503 1504 1505 1505 1506 1507 1508 1507 1507 1507 1506 1507 1507 1506 1506 1505 1504 1503 1502 1500 1499 1497 1496 1494 1492 1490 1489 1487 1485 1483 1481 1479 1478
1492 1492 1493 1493 1493 1493 1493 1493 1493 1493 1493 1493 1493 1492 1491 1491 1491 1492 1492 1493 1493 1494 1494 1495 1496 1496 1497 1499 1500 1501 1501 1502 1503 1503 1504 1505 1505 1505 1505 1504 1504 1505 1505 1504 1503 1502 1501 1500 1498 1497 1495 1494 1492 1490 1489 1487 1486 1484 1482 1480 1478 1477 1475
1490 1490 1490 1490 1490 1490 1490 1490 1490 1491 1491 1491 1491 1490 1489 1488 1488 1489 1490 1490 1491 1492 1493 1493 1494 1495 1496 1497 1499 1499 1500 1500 1501 1501 1502 1502 1503 1503 1503 1503 1503 1503 1502 1501 1500 1499 1498 1496 1495 1493 1492 1490 1489 1487 1486 1484 1483 1481 1479 1477 1476 1474 1473